Location: Caoba
(9.7667°N, 67.4833°W)
Time: 20:14:07
(UTC+00:00)

GOES 2 Rocket - Pass Details

Date: 11 December 2024
Orbit: 569 x 1662 km, 28.4° (Epoch: 14 January)

Event Time Altitude Azimuth Distance (km) Brightness Sun altitude
Exits shadow 09:08:27 33° 358° (N) 963 3.8 -21.0°
Maximum altitude 09:09:18 37° 26° (NNE) 900 3.9 -20.8°
Drops below altitude 10° 09:13:28 10° 95° (E) 1,995 6.8 -19.8°
Sets 09:16:07 0° 103° (ESE) 3,017 8.2 -19.2°
